Location: *
(51.8167°N, 12.5000°E)
Time: 21:54:42
(UTC+00:00)

USA 234 - Pass Details

Date: 16 September 2019
Orbit: 1103 x 1105 km, 123.0° (Epoch: 06 October)

Event Time Altitude Azimuth Distance (km) Brightness Sun altitude
Exits shadow 18:07:30 - 70° (ENE) 3,705 5.5 -7.6°
Reaches altitude 10° 18:09:26 10° 67° (ENE) 2,967 5.1 -7.9°
Maximum altitude 18:15:52 61° 350° (N) 1,239 3.7 -8.8°
Drops below altitude 10° 18:22:17 10° 272° (W) 2,965 7.0 -9.8°
Sets 18:24:47 0° 269° (W) 3,922 7.7 -10.1°
